Location: Minneapolis
(44.9800°N, 93.2640°W)
Time: 15:53:25
(UTC-06:00)

Iridium 96 - Visible Passes

Search period start: 25 November 2014 00:00
Search period end: 05 December 2014 00:00
Orbit: 777 x 778 km, 86.4° (Epoch: 25 November)

Date Brightness Start Highest point End Pass type
(mag) Time Alt. Az. Time Alt. Az. Time Alt. Az.
25 Nov 7.1 06:10:05 10° NNE 06:14:55 36° E 06:19:42 10° SSE visible
25 Nov 7.5 19:08:36 10° S 19:09:43 17° S 19:09:43 17° S visible
26 Nov 8.0 05:37:10 10° NNE 05:41:07 21° ENE 05:45:03 10° ESE visible
26 Nov 6.9 18:35:32 10° SSE 18:37:37 23° SE 18:37:37 23° SE visible
26 Nov 8.0 20:16:52 10° SW 20:18:11 16° WSW 20:18:11 16° WSW visible
27 Nov 8.5 05:05:09 10° NE 05:07:11 12° ENE 05:09:13 10° E visible
27 Nov 5.6 06:43:26 10° N 06:48:42 89° W 06:53:54 10° S visible
27 Nov 6.8 18:03:03 10° SE 18:05:37 20° ESE 18:05:37 20° ESE visible
27 Nov 6.7 19:42:29 10° SSW 19:46:11 38° WSW 19:46:11 38° WSW visible
28 Nov 6.5 06:10:00 10° N 06:15:07 51° E 06:20:10 10° SSE visible
28 Nov 7.1 17:31:34 10° ESE 17:33:42 13° ENE 17:33:42 13° ENE visible
28 Nov 5.5 19:08:39 10° S 19:13:51 81° W 19:14:16 74° NNW visible
28 Nov 8.5 20:54:22 10° W 20:54:51 10° WNW 20:54:51 10° WNW visible
29 Nov 7.5 05:36:51 10° NNE 05:41:24 29° ENE 05:45:55 10° SE visible
29 Nov 5.5 18:35:18 10° SSE 18:40:22 57° E 18:42:28 34° NNE visible
29 Nov 7.9 20:17:51 10° WSW 20:21:30 19° WNW 20:23:04 17° NW visible
30 Nov 8.3 05:04:09 10° NNE 05:07:33 17° ENE 05:10:56 10° ESE visible
30 Nov 5.6 06:43:36 10° N 06:48:46 64° W 06:53:54 10° S visible
30 Nov 6.2 18:02:26 10° SE 18:07:00 32° E 18:10:51 14° NNE visible
30 Nov 7.1 19:43:02 10° SW 19:47:40 32° WNW 19:51:28 14° NNW visible
01 Dec 5.8 06:10:01 10° N 06:15:15 73° E 06:20:27 10° S visible
01 Dec 6.8 17:30:15 10° ESE 17:33:46 19° ENE 17:37:17 10° NE visible
01 Dec 6.1 19:08:52 10° SSW 19:13:59 57° W 19:19:08 10° N visible
02 Dec 6.8 05:36:41 10° N 05:41:37 41° E 05:46:31 10° SSE visible
02 Dec 5.4 18:35:14 10° S 18:40:25 81° E 18:45:40 10° N visible
02 Dec 8.3 20:19:18 10° W 20:21:50 14° WNW 20:24:23 10° NW visible
03 Dec 7.8 05:03:40 10° NNE 05:07:51 24° ENE 05:12:01 10° SE visible
03 Dec 5.9 06:43:50 10° NNW 06:48:47 45° W 06:53:43 10° SSW visible
03 Dec 5.8 18:02:04 10° SSE 18:06:59 45° E 18:11:57 10° NNE visible
03 Dec 7.7 19:43:48 10° SW 19:47:56 23° WNW 19:52:05 10° NNW visible
04 Dec 8.4 04:31:20 10° NE 04:33:57 14° ENE 04:36:33 10° E visible
04 Dec 5.5 06:10:07 10° N 06:15:21 80° W 06:20:33 10° S visible
04 Dec 6.5 17:29:26 10° SE 17:33:40 26° E 17:37:55 10° NNE visible
04 Dec 6.7 19:09:17 10° SSW 19:14:09 40° W 19:19:05 10° N visible
